Location: Bushey
(51.6333°N, 0.3667°W)
Time: 21:11:34
(UTC+00:00)

USA 308 - Pass Details

Date: 03 March 2021
Orbit: 568 x 576 km, 54.0° (Epoch: 16 April)

Event Time Altitude Azimuth Distance (km) Brightness Sun altitude
Rises 20:05:31 0° 282° (WNW) 2,778 7.9 -22.3°
Reaches altitude 10° 20:07:47 10° 285° (WNW) 1,878 6.7 -22.6°
Maximum altitude 20:12:03 67° 9° (N) 621 3.0 -23.2°
Enters shadow 20:12:09 67° 19° (NNE) 623 2.9 -23.2°
